Precipitable_Water
0.34 0.34 0.34 0.34 0.34 0.33 0.33 0.33 0.33 0.34 0.33 0.33 0.32 0.32 0.32 0.32 0.32 0.32 0.32 0.32 0.32 0.32 0.32 0.32 0.31 0.31 0.31 0.32 0.31 0.30 0.30 0.29 0.29 0.28 0.28 0.27 0.27 0.26 0.26 0.25 0.25 0.24 0.23 0.24 0.25 0.24 0.24 0.25 0.25 0.25 0.25 0.25 0.26 0.26 0.27 0.27 0.26 0.25 0.25 0.25 0.25 0.25 0.25
0.34 0.34 0.34 0.34 0.34 0.34 0.34 0.34 0.34 0.34 0.33 0.33 0.32 0.32 0.33 0.32 0.32 0.32 0.32 0.32 0.32 0.32 0.32 0.32 0.32 0.32 0.32 0.32 0.31 0.31 0.30 0.30 0.29 0.29 0.28 0.28 0.27 0.27 0.27 0.27 0.25 0.25 0.24 0.24 0.24 0.24 0.25 0.25 0.25 0.24 0.25 0.25 0.25 0.25 0.25 0.26 0.25 0.25 0.25 0.25 0.25 0.24 0.24
0.37 0.37 0.36 0.35 0.35 0.35 0.35 0.35 0.35 0.34 0.34 0.33 0.33 0.33 0.33 0.33 0.33 0.32 0.32 0.32 0.32 0.33 0.33 0.33 0.32 0.32 0.32 0.32 0.32 0.31 0.31 0.31 0.30 0.30 0.29 0.28 0.28 0.27 0.27 0.27 0.27 0.25 0.25 0.24 0.24 0.25 0.25 0.24 0.24 0.24 0.25 0.25 0.25 0.24 0.24 0.24 0.24 0.25 0.25 0.25 0.24 0.24 0.23
0.37 0.38 0.38 0.37 0.36 0.36 0.36 0.36 0.36 0.36 0.35 0.35 0.34 0.34 0.33 0.33 0.33 0.33 0.33 0.33 0.33 0.33 0.33 0.33 0.33 0.33 0.33 0.33 0.32 0.32 0.31 0.31 0.31 0.30 0.29 0.29 0.29 0.28 0.28 0.27 0.27 0.26 0.26 0.25 0.25 0.25 0.25 0.25 0.25 0.25 0.24 0.24 0.24 0.24 0.24 0.24 0.24 0.25 0.24 0.24 0.24 0.23 0.23
0.37 0.37 0.37 0.37 0.37 0.37 0.37 0.37 0.37 0.36 0.36 0.36 0.35 0.35 0.34 0.34 0.34 0.34 0.34 0.34 0.34 0.34 0.34 0.34 0.33 0.33 0.33 0.33 0.32 0.32 0.31 0.31 0.31 0.30 0.30 0.29 0.29 0.28 0.28 0.27 0.27 0.26 0.26 0.25 0.25 0.25 0.26 0.26 0.25 0.25 0.25 0.24 0.23 0.23 0.23 0.24 0.24 0.24 0.24 0.23 0.23 0.22 0.22
0.38 0.37 0.36 0.36 0.36 0.36 0.37 0.37 0.38 0.37 0.37 0.36 0.36 0.36 0.35 0.35 0.35 0.35 0.35 0.35 0.35 0.35 0.35 0.34 0.34 0.34 0.33 0.33 0.32 0.31 0.31 0.31 0.31 0.30 0.30 0.29 0.29 0.28 0.28 0.27 0.27 0.27 0.26 0.26 0.26 0.26 0.25 0.26 0.25 0.24 0.24 0.24 0.24 0.23 0.23 0.22 0.23 0.23 0.23 0.22 0.22 0.22 0.22
0.36 0.37 0.37 0.37 0.36 0.36 0.36 0.35 0.36 0.36 0.37 0.37 0.36 0.36 0.35 0.35 0.35 0.35 0.35 0.35 0.35 0.35 0.35 0.35 0.34 0.34 0.34 0.33 0.32 0.32 0.31 0.31 0.31 0.30 0.30 0.29 0.29 0.28 0.27 0.27 0.27 0.26 0.26 0.25 0.25 0.25 0.25 0.25 0.25 0.25 0.24 0.24 0.24 0.23 0.22 0.22 0.21 0.21 0.22 0.22 0.22 0.21 0.21
0.33 0.34 0.35 0.35 0.36 0.36 0.37 0.36 0.36 0.35 0.35 0.35 0.36 0.35 0.35 0.35 0.34 0.34 0.34 0.34 0.35 0.35 0.35 0.34 0.34 0.34 0.34 0.33 0.33 0.32 0.32 0.31 0.30 0.30 0.29 0.29 0.29 0.28 0.27 0.26 0.26 0.26 0.25 0.25 0.24 0.24 0.24 0.24 0.24 0.24 0.24 0.23 0.22 0.21 0.21 0.21 0.21 0.21 0.21 0.21 0.21 0.21 0.20
0.30 0.31 0.31 0.32 0.33 0.34 0.35 0.35 0.35 0.35 0.35 0.35 0.35 0.35 0.34 0.34 0.34 0.34 0.33 0.33 0.34 0.34 0.34 0.34 0.34 0.34 0.33 0.33 0.33 0.32 0.32 0.31 0.31 0.30 0.29 0.29 0.29 0.27 0.27 0.26 0.26 0.25 0.25 0.24 0.24 0.23 0.24 0.23 0.23 0.23 0.22 0.21 0.21 0.21 0.21 0.21 0.21 0.21 0.21 0.21 0.20 0.20 0.20
0.28 0.28 0.28 0.29 0.30 0.31 0.32 0.32 0.33 0.34 0.35 0.35 0.35 0.35 0.34 0.34 0.33 0.33 0.33 0.32 0.32 0.32 0.33 0.33 0.33 0.33 0.33 0.32 0.32 0.32 0.31 0.31 0.30 0.30 0.29 0.29 0.28 0.27 0.26 0.26 0.25 0.24 0.24 0.24 0.23 0.23 0.23 0.22 0.22 0.22 0.22 0.21 0.22 0.22 0.21 0.21 0.20 0.20 0.20 0.20 0.19 0.20 0.20
0.25 0.26 0.26 0.27 0.27 0.28 0.29 0.30 0.31 0.32 0.33 0.34 0.34 0.34 0.34 0.33 0.33 0.33 0.32 0.32 0.31 0.31 0.31 0.32 0.32 0.32 0.32 0.32 0.31 0.31 0.31 0.30 0.30 0.30 0.29 0.29 0.28 0.28 0.27 0.25 0.24 0.24 0.24 0.23 0.23 0.23 0.22 0.22 0.22 0.22 0.22 0.22 0.21 0.21 0.21 0.20 0.20 0.19 0.19 0.19 0.18 0.17 0.19
0.23 0.24 0.24 0.25 0.26 0.26 0.27 0.27 0.28 0.30 0.31 0.32 0.32 0.32 0.32 0.32 0.32 0.32 0.32 0.31 0.31 0.31 0.31 0.30 0.31 0.31 0.31 0.31 0.31 0.30 0.30 0.30 0.30 0.29 0.29 0.28 0.28 0.27 0.27 0.27 0.25 0.24 0.23 0.23 0.22 0.22 0.22 0.22 0.21 0.22 0.21 0.21 0.21 0.20 0.20 0.19 0.19 0.19 0.19 0.18 0.18 0.18 0.17
0.21 0.22 0.23 0.23 0.23 0.24 0.25 0.26 0.27 0.28 0.29 0.29 0.30 0.30 0.30 0.30 0.30 0.30 0.30 0.30 0.30 0.30 0.30 0.30 0.29 0.29 0.30 0.30 0.30 0.30 0.29 0.29 0.28 0.28 0.28 0.27 0.27 0.26 0.26 0.26 0.26 0.26 0.24 0.24 0.23 0.22 0.22 0.22 0.22 0.21 0.21 0.21 0.21 0.20 0.19 0.19 0.19 0.18 0.18 0.18 0.18 0.18 0.17
0.19 0.20 0.21 0.21 0.22 0.22 0.23 0.24 0.25 0.26 0.27 0.27 0.28 0.28 0.28 0.28 0.28 0.28 0.28 0.28 0.28 0.29 0.29 0.29 0.28 0.28 0.28 0.28 0.28 0.28 0.28 0.28 0.27 0.27 0.27 0.26 0.26 0.26 0.26 0.26 0.25 0.25 0.25 0.24 0.23 0.22 0.21 0.22 0.22 0.21 0.21 0.21 0.21 0.19 0.19 0.18 0.18 0.18 0.18 0.18 0.17 0.18 0.17
0.18 0.19 0.19 0.20 0.20 0.21 0.21 0.22 0.24 0.25 0.25 0.26 0.26 0.26 0.26 0.26 0.26 0.26 0.26 0.26 0.27 0.27 0.27 0.27 0.27 0.27 0.27 0.27 0.27 0.27 0.26 0.26 0.26 0.25 0.25 0.25 0.25 0.25 0.25 0.25 0.25 0.25 0.25 0.24 0.24 0.23 0.22 0.22 0.22 0.22 0.22 0.21 0.21 0.20 0.20 0.19 0.19 0.18 0.18 0.18 0.17 0.16 0.16
0.17 0.18 0.18 0.18 0.19 0.19 0.19 0.20 0.21 0.23 0.23 0.24 0.24 0.24 0.24 0.24 0.24 0.24 0.24 0.24 0.24 0.25 0.26 0.26 0.26 0.26 0.25 0.26 0.26 0.26 0.26 0.25 0.25 0.24 0.23 0.23 0.23 0.23 0.24 0.24 0.24 0.25 0.24 0.24 0.24 0.23 0.23 0.22 0.22 0.22 0.21 0.21 0.20 0.20 0.19 0.19 0.18 0.18 0.17 0.16 0.15 0.14 0.15
0.16 0.17 0.17 0.17 0.17 0.18 0.18 0.19 0.19 0.21 0.21 0.22 0.22 0.22 0.22 0.22 0.22 0.21 0.22 0.22 0.22 0.23 0.23 0.24 0.24 0.24 0.24 0.24 0.24 0.25 0.25 0.25 0.24 0.23 0.22 0.22 0.22 0.22 0.22 0.22 0.23 0.24 0.24 0.24 0.24 0.24 0.23 0.23 0.22 0.22 0.21 0.21 0.20 0.20 0.19 0.18 0.16 0.16 0.16 0.15 0.14 0.14 0.14
0.16 0.16 0.17 0.17 0.17 0.17 0.17 0.17 0.18 0.19 0.20 0.20 0.21 0.21 0.20 0.20 0.20 0.19 0.20 0.20 0.20 0.21 0.21 0.21 0.22 0.22 0.23 0.23 0.23 0.23 0.23 0.23 0.23 0.22 0.21 0.21 0.20 0.20 0.20 0.21 0.22 0.22 0.22 0.23 0.23 0.23 0.23 0.23 0.22 0.22 0.21 0.21 0.21 0.20 0.19 0.17 0.15 0.16 0.15 0.14 0.14 0.13 0.13
0.14 0.14 0.15 0.16 0.16 0.16 0.16 0.16 0.17 0.17 0.18 0.19 0.19 0.19 0.19 0.19 0.18 0.18 0.18 0.18 0.18 0.19 0.20 0.20 0.20 0.20 0.21 0.21 0.22 0.22 0.22 0.22 0.22 0.21 0.21 0.20 0.19 0.19 0.19 0.19 0.20 0.20 0.20 0.20 0.20 0.21 0.21 0.21 0.21 0.21 0.21 0.20 0.20 0.20 0.19 0.18 0.17 0.16 0.15 0.14 0.14 0.13 0.13
0.12 0.12 0.12 0.13 0.13 0.14 0.15 0.15 0.15 0.16 0.17 0.17 0.18 0.18 0.18 0.18 0.17 0.16 0.17 0.17 0.17 0.17 0.18 0.18 0.19 0.19 0.19 0.20 0.20 0.21 0.21 0.21 0.21 0.21 0.21 0.20 0.19 0.18 0.18 0.19 0.19 0.19 0.19 0.18 0.18 0.19 0.19 0.19 0.20 0.20 0.20 0.19 0.19 0.19 0.19 0.18 0.17 0.16 0.15 0.14 0.14 0.13 0.13
0.11 0.11 0.11 0.11 0.12 0.12 0.12 0.13 0.13 0.13 0.14 0.14 0.15 0.16 0.16 0.16 0.16 0.16 0.16 0.16 0.16 0.16 0.16 0.17 0.17 0.18 0.18 0.19 0.19 0.19 0.19 0.20 0.20 0.20 0.20 0.20 0.18 0.18 0.18 0.19 0.18 0.18 0.18 0.18 0.18 0.18 0.18 0.18 0.18 0.18 0.18 0.18 0.18 0.18 0.18 0.18 0.17 0.16 0.15 0.15 0.14 0.13 0.13
0.10 0.10 0.10 0.10 0.11 0.11 0.11 0.11 0.11 0.11 0.11 0.12 0.12 0.13 0.13 0.13 0.13 0.14 0.14 0.13 0.13 0.13 0.13 0.14 0.14 0.15 0.16 0.17 0.18 0.18 0.18 0.19 0.19 0.19 0.19 0.19 0.20 0.19 0.19 0.19 0.18 0.18 0.18 0.17 0.17 0.17 0.17 0.17 0.16 0.16 0.16 0.17 0.17 0.17 0.17 0.17 0.16 0.16 0.15 0.14 0.14 0.13 0.13
0.09 0.09 0.09 0.10 0.10 0.10 0.10 0.10 0.10 0.10 0.10 0.11 0.11 0.12 0.12 0.12 0.13 0.13 0.12 0.11 0.11 0.11 0.11 0.11 0.11 0.11 0.12 0.13 0.14 0.16 0.17 0.17 0.17 0.18 0.18 0.18 0.18 0.18 0.19 0.19 0.18 0.17 0.17 0.16 0.16 0.16 0.15 0.15 0.15 0.15 0.15 0.15 0.16 0.16 0.16 0.16 0.16 0.16 0.16 0.15 0.15 0.15 0.14
0.08 0.08 0.08 0.08 0.08 0.08 0.09 0.09 0.09 0.09 0.09 0.09 0.10 0.10 0.11 0.11 0.12 0.12 0.11 0.11 0.10 0.11 0.11 0.11 0.10 0.10 0.11 0.11 0.12 0.12 0.14 0.15 0.15 0.16 0.16 0.16 0.16 0.17 0.17 0.17 0.17 0.16 0.16 0.15 0.15 0.15 0.14 0.14 0.15 0.15 0.15 0.15 0.15 0.15 0.15 0.16 0.16 0.16 0.16 0.15 0.15 0.15 0.15
0.08 0.08 0.08 0.08 0.08 0.08 0.08 0.08 0.08 0.08 0.09 0.09 0.09 0.09 0.10 0.10 0.10 0.10 0.10 0.10 0.10 0.10 0.10 0.10 0.11 0.11 0.11 0.11 0.11 0.10 0.10 0.10 0.11 0.12 0.13 0.14 0.14 0.15 0.15 0.15 0.15 0.15 0.14 0.13 0.13 0.13 0.13 0.14 0.14 0.14 0.14 0.15 0.15 0.15 0.15 0.14 0.14 0.15 0.15 0.15 0.15 0.15 0.14
0.08 0.08 0.08 0.07 0.07 0.07 0.08 0.08 0.08 0.08 0.08 0.08 0.09 0.09 0.09 0.10 0.10 0.10 0.10 0.10 0.09 0.09 0.09 0.09 0.10 0.09 0.10 0.10 0.10 0.10 0.10 0.09 0.08 0.09 0.09 0.10 0.10 0.11 0.12 0.13 0.13 0.13 0.13 0.12 0.12 0.12 0.12 0.13 0.13 0.14 0.14 0.14 0.14 0.14 0.13 0.13 0.13 0.13 0.13 0.13 0.13 0.12 0.13
0.07 0.07 0.07 0.07 0.07 0.07 0.07 0.07 0.07 0.07 0.07 0.08 0.08 0.08 0.09 0.09 0.09 0.09 0.09 0.09 0.09 0.09 0.08 0.09 0.09 0.09 0.09 0.09 0.09 0.09 0.09 0.09 0.09 0.09 0.09 0.08 0.08 0.09 0.09 0.09 0.10 0.11 0.12 0.12 0.12 0.12 0.12 0.12 0.13 0.13 0.13 0.13 0.13 0.13 0.13 0.13 0.13 0.12 0.12 0.12 0.12 0.11 0.11
0.07 0.07 0.07 0.07 0.07 0.07 0.07 0.07 0.07 0.07 0.07 0.07 0.08 0.08 0.08 0.08 0.08 0.08 0.08 0.08 0.07 0.07 0.07 0.08 0.08 0.08 0.08 0.08 0.08 0.08 0.08 0.08 0.08 0.08 0.08 0.08 0.08 0.08 0.08 0.08 0.08 0.09 0.09 0.10 0.11 0.11 0.12 0.12 0.12 0.11 0.11 0.11 0.11 0.11 0.12 0.12 0.12 0.12 0.11 0.11 0.11 0.10 0.10
0.07 0.07 0.07 0.07 0.07 0.06 0.06 0.06 0.06 0.06 0.07 0.08 0.08 0.08 0.08 0.08 0.08 0.08 0.07 0.07 0.07 0.07 0.07 0.07 0.07 0.07 0.07 0.07 0.07 0.06 0.07 0.07 0.07 0.07 0.07 0.07 0.07 0.08 0.08 0.08 0.08 0.07 0.07 0.07 0.08 0.09 0.10 0.10 0.10 0.10 0.11 0.10 0.10 0.10 0.11 0.11 0.11 0.11 0.11 0.11 0.10 0.10 0.10
0.08 0.08 0.07 0.07 0.07 0.07 0.06 0.06 0.06 0.07 0.08 0.08 0.08 0.08 0.08 0.08 0.08 0.08 0.07 0.07 0.07 0.07 0.06 0.06 0.06 0.06 0.06 0.06 0.06 0.06 0.06 0.06 0.06 0.06 0.06 0.06 0.07 0.07 0.07 0.07 0.07 0.07 0.07 0.08 0.07 0.07 0.07 0.08 0.09 0.09 0.09 0.09 0.09 0.09 0.10 0.10 0.10 0.10 0.10 0.09 0.09 0.09 0.09
0.08 0.08 0.07 0.07 0.06 0.06 0.07 0.07 0.07 0.07 0.07 0.08 0.08 0.08 0.07 0.08 0.08 0.07 0.07 0.06 0.06 0.06 0.06 0.06 0.05 0.06 0.06 0.06 0.06 0.06 0.06 0.06 0.06 0.06 0.06 0.06 0.06 0.06 0.06 0.06 0.07 0.07 0.07 0.07 0.07 0.07 0.07 0.07 0.07 0.07 0.08 0.08 0.08 0.08 0.09 0.09 0.09 0.09 0.09 0.08 0.08 0.08 0.08
0.07 0.07 0.06 0.06 0.06 0.06 0.06 0.07 0.07 0.07 0.07 0.07 0.07 0.07 0.07 0.07 0.06 0.06 0.05 0.05 0.05 0.04 0.04 0.04 0.04 0.04 0.04 0.05 0.05 0.05 0.05 0.05 0.06 0.06 0.06 0.06 0.06 0.06 0.07 0.07 0.06 0.07 0.07 0.07 0.07 0.07 0.07 0.07 0.07 0.07 0.07 0.07 0.08 0.08 0.08 0.08 0.08 0.08 0.08 0.08 0.08 0.08 0.08
0.06 0.06 0.06 0.06 0.07 0.07 0.07 0.06 0.06 0.06 0.06 0.06 0.06 0.06 0.05 0.05 0.05 0.05 0.05 0.04 0.04 0.04 0.04 0.04 0.04 0.04 0.04 0.04 0.04 0.04 0.04 0.04 0.04 0.05 0.05 0.05 0.05 0.05 0.06 0.06 0.07 0.07 0.07 0.07 0.07 0.07 0.07 0.07 0.07 0.07 0.08 0.08 0.08 0.07 0.07 0.07 0.07 0.07 0.07 0.07 0.07 0.07 0.07
0.06 0.06 0.06 0.06 0.06 0.06 0.06 0.05 0.05 0.05 0.05 0.05 0.05 0.05 0.05 0.04 0.04 0.04 0.04 0.04 0.03 0.03 0.03 0.03 0.03 0.03 0.03 0.04 0.04 0.04 0.04 0.04 0.04 0.04 0.04 0.04 0.04 0.05 0.05 0.05 0.05 0.06 0.06 0.06 0.07 0.07 0.07 0.07 0.08 0.08 0.07 0.07 0.08 0.08 0.08 0.08 0.08 0.07 0.07 0.07 0.07 0.07 0.07
0.05 0.05 0.05 0.05 0.05 0.05 0.05 0.05 0.05 0.05 0.05 0.05 0.04 0.04 0.04 0.04 0.03 0.03 0.03 0.03 0.03 0.03 0.03 0.03 0.03 0.03 0.03 0.03 0.03 0.03 0.03 0.03 0.03 0.03 0.03 0.04 0.04 0.04 0.04 0.04 0.04 0.05 0.05 0.05 0.05 0.06 0.06 0.06 0.06 0.07 0.07 0.07 0.07 0.07 0.07 0.07 0.07 0.07 0.07 0.07 0.07 0.07 0.07
0.05 0.05 0.05 0.05 0.05 0.05 0.05 0.04 0.04 0.04 0.04 0.04 0.04 0.04 0.03 0.03 0.03 0.03 0.03 0.03 0.03 0.03 0.03 0.03 0.03 0.03 0.03 0.03 0.03 0.03 0.03 0.03 0.03 0.03 0.03 0.03 0.03 0.03 0.04 0.04 0.04 0.04 0.04 0.04 0.05 0.05 0.05 0.05 0.06 0.06 0.06 0.06 0.06 0.06 0.07 0.07 0.07 0.07 0.07 0.07 0.07 0.07 0.07
Wind_Speed
51 51 52 52 52 53 53 53 53 54 54 54 55 55 55 56 56 57 58 58 58 58 58 59 59 59 59 59 59 60 59 60 60 60 61 61 62 62 62 62 61 62 61 60 59 58 57 57 57 57 57 57 57 58 58 58 58 58 58 58 58 57 57
51 52 52 53 53 54 54 55 55 55 55 56 56 56 56 57 57 58 59 59 59 60 60 60 60 60 60 60 60 61 60 60 61 61 62 62 62 63 63 62 62 62 62 61 60 59 59 58 58 58 58 58 58 58 58 58 58 58 58 58 58 57 57
52 52 53 54 54 55 55 56 56 56 57 57 58 58 58 58 59 59 60 60 61 61 61 61 61 62 61 61 61 62 61 61 62 62 62 63 63 63 63 63 62 62 62 62 61 60 60 59 59 59 59 58 58 58 58 58 58 58 58 58 58 58 58
52 53 54 54 55 56 56 56 57 57 58 58 59 59 60 60 60 61 61 62 62 62 62 62 63 62 62 62 62 62 62 62 62 62 63 63 63 63 63 62 62 62 62 61 61 60 60 60 59 59 59 58 58 58 58 58 58 58 58 58 58 58 58
53 53 54 54 55 56 56 57 57 58 59 59 59 60 61 61 62 62 62 63 63 63 63 63 64 63 62 62 63 63 62 62 62 62 62 62 62 62 62 62 62 62 61 61 61 60 59 59 59 59 58 58 58 57 58 58 58 58 58 58 58 58 58
54 54 54 55 55 56 56 57 57 58 59 60 61 61 62 62 62 62 63 63 63 63 63 63 63 63 63 63 63 63 62 62 62 62 62 62 62 62 62 61 61 61 60 60 60 60 59 59 59 58 58 58 58 58 58 58 58 58 58 58 58 58 58
55 55 55 55 56 56 56 57 57 58 59 60 61 61 62 62 62 62 62 62 62 62 62 62 62 62 62 62 62 62 62 61 62 62 62 62 62 61 61 61 61 60 60 60 60 59 59 59 59 58 58 58 58 58 58 58 58 58 58 58 58 58 58
55 55 55 55 55 56 56 56 57 57 58 58 59 60 61 61 61 61 61 61 61 61 61 61 61 61 62 62 62 62 62 61 61 61 61 62 61 60 60 60 60 59 59 59 59 58 58 58 58 58 58 57 57 57 57 57 57 57 57 58 58 58 57
53 53 54 54 54 54 55 55 55 56 56 57 58 58 59 59 60 60 60 60 60 60 60 60 60 60 61 61 61 62 62 62 62 61 61 61 60 60 60 59 59 58 58 58 58 58 57 57 57 58 57 57 57 57 57 57 57 57 57 57 57 57 57
52 52 53 53 53 53 54 54 54 55 56 56 57 57 57 57 58 58 58 58 58 58 59 59 59 59 60 60 61 61 62 62 61 61 61 60 60 59 59 59 58 58 58 57 57 57 57 56 57 58 57 57 57 57 57 56 57 57 56 55 56 56 57
51 51 52 52 52 52 53 53 53 54 54 54 55 55 55 55 56 56 56 57 57 57 57 57 58 58 58 59 59 60 60 60 60 61 61 60 59 59 59 58 58 58 57 57 57 57 57 57 57 57 57 57 57 56 56 56 56 56 56 55 56 55 55
50 50 50 51 51 51 51 52 52 52 53 53 53 53 53 54 54 54 55 55 56 56 56 56 56 57 57 57 58 58 58 59 59 59 59 59 59 59 59 59 59 58 57 57 57 57 57 57 57 57 56 56 56 56 56 56 56 56 56 56 56 55 54
49 50 50 50 50 51 51 51 51 51 52 52 52 52 52 52 52 53 53 54 54 55 55 55 55 55 55 55 56 56 56 57 57 57 58 58 58 59 59 60 60 59 58 58 57 57 58 57 56 56 56 56 55 55 55 55 56 56 56 56 56 55 54
49 49 50 50 50 50 50 50 51 51 51 51 51 51 51 51 51 51 51 52 52 53 53 53 53 54 54 54 54 54 54 55 55 55 56 56 57 57 58 58 59 59 58 58 57 57 58 57 56 56 56 55 55 55 55 55 55 55 55 55 55 54 53
48 48 49 49 49 49 50 50 50 50 50 50 50 50 50 50 50 50 50 51 51 51 51 52 52 52 52 53 52 52 52 52 53 53 54 54 55 56 56 56 56 57 57 57 57 57 57 56 56 56 56 55 55 55 55 55 55 55 55 54 54 53 53
46 47 47 47 48 48 48 49 49 49 49 49 49 48 49 49 49 49 49 49 49 49 50 50 50 51 51 51 51 52 52 52 52 52 52 53 53 54 54 55 55 56 56 57 57 57 57 56 56 56 56 56 56 56 55 54 54 54 53 53 53 53 53
43 43 44 44 45 45 45 46 46 46 47 47 47 47 47 47 47 47 47 47 47 47 47 47 48 48 49 49 49 49 50 51 51 51 52 52 52 52 53 53 54 54 56 56 56 57 57 57 56 56 56 56 56 56 55 54 54 54 53 53 53 53 53
39 40 40 40 41 41 41 42 42 42 43 43 43 44 44 44 44 44 44 44 45 45 45 45 45 46 46 46 47 47 48 49 50 50 51 51 51 52 52 52 52 52 53 54 55 55 56 56 56 56 56 56 57 56 56 55 55 54 53 53 53 53 52
36 37 37 37 37 38 38 38 39 39 40 40 41 41 41 41 41 42 42 42 43 43 43 43 43 43 44 44 45 45 46 47 48 49 49 50 50 51 51 51 50 51 52 52 53 54 54 55 55 55 55 55 56 56 56 56 55 54 53 53 53 52 51
34 34 34 34 35 35 35 35 36 37 37 38 38 39 39 39 40 41 41 41 41 41 41 42 42 42 43 43 44 44 44 45 46 47 48 49 49 50 50 50 50 51 51 51 52 53 53 53 53 53 53 53 53 54 54 54 54 53 53 53 52 52 51
32 32 33 33 33 33 33 34 34 35 35 36 37 37 38 38 38 39 39 40 40 40 41 41 41 41 42 43 43 44 44 44 45 46 46 48 49 50 50 49 49 50 50 50 51 51 51 51 51 51 51 51 51 51 52 52 52 52 52 52 52 51 51
31 31 31 31 32 32 32 33 33 34 34 35 36 36 37 37 37 37 37 38 39 39 40 40 40 41 41 42 43 43 44 44 45 45 45 46 47 48 49 49 49 49 49 49 49 49 49 49 49 50 50 50 50 50 50 51 51 52 52 52 52 51 51
30 30 31 31 31 32 32 33 33 34 34 35 36 36 36 37 37 37 37 37 38 38 38 39 39 40 41 41 42 42 43 43 43 44 44 44 45 45 45 46 47 48 48 48 48 48 48 48 48 48 49 49 49 50 50 51 51 52 52 52 52 52 52
30 31 32 32 32 33 33 34 34 35 35 36 36 36 37 37 37 37 38 38 38 38 38 38 39 39 40 40 41 41 42 42 43 43 44 44 45 45 45 45 45 46 48 48 49 49 49 49 49 49 49 49 50 50 51 52 52 53 53 53 53 53 54
32 33 33 33 34 34 35 36 36 36 37 37 37 38 38 38 38 38 39 38 38 38 39 39 40 40 41 41 41 42 42 43 44 44 45 45 46 46 46 46 46 46 47 48 49 50 50 50 50 50 50 50 51 51 51 52 52 52 53 53 53 54 54
34 34 34 34 35 36 37 38 38 38 38 39 39 39 40 40 40 39 39 39 39 39 40 40 41 41 41 41 42 42 43 43 44 45 46 46 46 46 47 47 47 48 48 48 49 49 50 51 51 51 52 51 51 52 52 52 51 52 52 52 52 53 53
35 35 35 36 37 38 39 39 39 39 39 40 40 40 40 40 40 39 39 39 40 40 41 41 41 41 42 42 42 43 43 43 44 45 45 46 47 47 48 48 49 49 50 50 49 50 50 51 51 51 52 52 52 52 52 52 52 52 52 52 52 52 53
35 35 35 37 38 39 39 39 39 39 40 40 41 41 40 40 39 39 40 40 41 41 42 42 43 43 43 43 43 44 44 44 45 45 45 46 47 47 48 49 49 50 51 51 51 51 51 51 51 51 52 52 52 52 52 52 52 52 52 52 52 52 53
35 35 36 37 38 39 39 39 38 39 40 40 40 40 39 38 39 40 40 41 42 43 44 44 44 44 44 44 44 44 45 45 45 46 46 46 47 47 48 48 49 50 50 51 51 52 52 52 52 52 52 52 52 53 52 52 53 53 53 53 53 53 53
36 36 38 38 38 39 38 38 38 39 39 39 38 38 38 38 39 40 40 41 43 43 43 43 43 43 44 44 44 44 45 45 45 46 46 46 47 47 47 48 48 49 49 50 50 51 51 51 52 52 52 53 53 53 53 53 53 53 53 53 53 53 53
37 38 38 39 38 38 37 37 37 38 38 37 37 37 37 38 39 40 40 41 41 41 41 41 41 42 42 43 43 43 44 44 44 44 45 45 46 46 46 46 47 47 48 49 49 50 50 50 51 51 52 52 53 53 53 52 53 53 53 53 53 52 52
38 38 39 39 38 37 37 36 36 36 36 36 35 35 36 37 38 38 38 38 38 38 38 38 39 39 40 40 41 41 42 42 43 43 43 44 44 45 45 45 46 46 47 47 47 48 48 49 49 49 50 50 51 51 52 52 52 52 52 52 52 52 51
38 38 38 38 37 37 36 36 35 35 35 34 33 34 34 35 35 35 35 35 35 35 35 36 36 37 37 38 38 39 40 40 41 41 42 42 43 43 44 45 45 46 46 46 46 47 47 47 48 48 48 49 49 50 51 51 51 51 51 51 51 51 50
38 37 37 36 36 35 35 34 34 34 33 32 32 32 33 32 32 32 32 32 32 33 33 34 34 35 36 36 37 38 39 39 40 41 41 42 42 43 44 44 45 45 46 46 46 47 47 47 48 48 48 48 48 49 49 50 50 50 50 50 50 49 49
36 36 35 34 34 33 33 33 32 32 31 31 31 31 31 31 31 31 31 31 31 31 32 33 33 34 35 35 36 37 38 38 39 40 40 41 42 42 43 43 44 44 45 46 46 46 47 47 47 48 48 48 48 48 48 49 49 49 49 49 49 48 48
34 34 33 32 31 31 31 30 30 30 30 30 30 30 30 29 29 30 30 30 30 31 31 32 32 33 34 34 35 36 36 37 37 38 38 39 40 40 41 42 42 43 43 44 45 45 46 46 47 47 47 48 48 48 48 48 48 49 49 49 48 48 48
Wind_Direction
271 271 270 270 269 269 268 268 268 268 268 267 267 268 268 268 267 267 267 267 267 267 267 266 266 266 267 266 266 266 266 265 265 265 265 265 265 265 265 265 265 266 267 268 268 267 267 266 265 265 264 264 264 263 262 262 262 262 262 262 262 263 263
273 272 272 271 270 270 269 269 268 268 268 268 268 268 268 268 268 268 268 268 268 267 267 267 267 267 267 266 265 265 265 265 265 265 265 265 265 265 265 265 264 265 266 267 267 266 266 265 265 264 264 264 264 263 262 262 261 261 262 262 262 262 262
274 274 273 273 272 271 271 270 270 269 269 269 269 269 269 268 268 268 268 268 268 268 267 267 267 267 267 266 265 265 265 265 265 265 265 265 265 265 265 264 264 264 265 266 266 265 265 265 264 264 264 264 263 262 262 262 262 261 261 261 261 262 262
275 275 274 274 273 273 272 271 271 270 270 270 270 269 269 269 269 269 269 268 268 268 267 267 267 268 267 266 265 266 266 265 265 265 265 265 265 264 264 264 264 263 264 265 265 265 265 264 264 264 264 263 263 263 262 262 262 261 261 261 261 261 261
276 276 275 275 274 274 273 272 272 271 270 270 270 270 270 269 269 269 269 269 268 268 268 267 267 267 267 266 265 266 266 265 265 265 265 264 264 264 264 264 263 263 263 264 264 264 264 264 264 264 264 263 262 262 262 262 262 261 261 261 261 261 261
277 276 276 275 275 274 273 273 272 272 271 271 270 270 270 270 269 269 269 269 269 268 268 268 267 267 267 266 265 266 266 265 265 264 264 264 264 264 264 263 263 263 263 263 263 264 263 263 263 263 263 262 262 262 261 261 261 261 261 261 261 262 262
277 276 276 275 275 274 274 273 273 273 272 272 271 270 270 270 270 270 270 269 269 269 268 268 267 267 267 266 266 266 266 265 265 264 264 264 264 264 263 263 263 263 262 262 263 263 262 262 262 262 262 262 261 261 261 261 261 261 261 261 262 262 262
277 277 276 276 275 275 275 274 274 273 273 272 272 271 271 270 270 270 270 270 269 269 268 268 268 267 267 267 266 266 266 265 265 265 264 264 264 263 263 262 262 262 262 262 262 262 261 261 261 261 261 261 260 260 260 261 260 261 261 261 261 262 261
278 278 277 277 276 276 275 275 274 274 274 273 273 273 272 272 271 270 270 270 269 269 268 268 268 267 267 267 266 266 266 265 265 264 264 264 263 262 262 262 262 261 261 261 261 261 261 260 260 260 260 260 259 260 260 261 260 261 262 261 261 261 261
279 279 278 278 277 277 276 276 275 275 275 275 274 274 273 273 272 271 270 270 269 269 268 268 268 268 267 267 266 266 266 265 265 264 264 264 263 262 262 261 261 261 261 260 260 260 260 260 260 260 259 260 260 260 260 260 260 261 261 261 261 262 261
280 280 279 278 278 278 277 276 276 276 276 276 275 274 273 273 272 271 270 270 269 269 268 268 268 268 267 267 266 266 266 265 265 264 264 264 263 262 261 261 261 260 260 260 260 260 260 260 261 261 260 260 260 260 260 260 260 260 260 260 260 261 261
281 280 280 279 279 278 278 277 277 277 277 276 276 275 274 273 272 272 271 270 270 269 269 268 268 268 267 267 267 267 266 266 265 265 264 263 263 262 261 260 260 260 260 260 260 260 260 260 261 260 260 260 260 260 259 259 259 259 259 259 260 260 261
282 281 281 280 280 279 279 278 278 278 278 277 276 276 275 274 273 272 272 271 270 270 269 269 269 268 268 267 267 267 267 266 266 265 264 263 262 262 261 260 260 260 260 260 260 260 260 260 260 260 260 260 259 259 259 259 259 259 259 259 259 259 260
283 282 281 281 280 280 279 278 279 279 278 277 277 276 275 274 274 273 272 272 271 271 270 270 269 269 269 268 268 267 267 266 266 265 264 263 262 262 261 261 260 260 260 260 260 260 261 261 260 260 260 260 259 258 259 259 259 259 259 259 259 259 260
283 283 282 281 281 280 279 279 279 279 278 278 277 277 275 275 274 274 273 273 272 272 271 270 270 269 269 268 268 267 267 266 266 265 264 264 263 262 262 261 261 260 260 260 260 260 261 261 260 260 260 260 259 259 259 260 259 259 259 259 259 259 260
285 284 283 282 282 281 280 280 280 280 279 278 278 277 276 275 275 274 274 273 273 272 272 271 270 270 269 268 268 267 266 266 265 265 264 263 263 263 262 262 261 260 260 260 260 260 261 261 260 260 260 259 259 259 259 259 259 259 258 259 259 259 259
287 286 285 285 284 283 282 281 281 281 280 279 279 278 277 276 275 275 274 274 273 273 272 272 271 270 269 268 268 267 266 265 265 264 263 263 263 262 262 262 262 261 260 260 260 260 260 260 260 260 259 259 259 259 258 258 258 258 258 258 259 260 259
289 288 288 287 286 285 284 283 282 282 281 280 280 279 277 277 276 275 274 274 273 273 272 272 272 271 270 269 268 267 267 266 265 264 264 263 263 262 262 263 262 262 261 261 261 261 260 260 260 260 259 259 258 258 257 257 258 258 257 258 259 260 260
291 291 290 289 288 287 286 285 284 284 283 282 281 280 278 277 277 276 275 275 274 274 273 272 272 272 271 270 269 268 267 266 266 265 264 264 264 263 263 263 263 262 262 261 261 261 261 261 260 260 259 259 258 257 257 258 258 258 257 258 259 259 259
294 293 292 291 291 290 289 288 286 286 285 284 283 282 280 279 278 277 277 276 276 275 274 274 273 272 272 271 270 269 268 267 267 266 265 264 264 264 265 264 263 262 262 262 261 261 261 261 261 260 260 259 258 257 257 257 257 257 257 258 258 258 258
296 295 295 294 293 293 292 291 289 288 288 287 286 285 283 281 280 279 278 277 277 276 275 275 274 273 272 272 271 270 269 268 268 267 267 265 264 264 265 264 263 263 262 262 262 262 261 261 260 260 259 258 258 257 257 257 256 256 257 257 257 257 257
299 299 298 297 296 295 294 293 292 291 290 289 288 287 285 283 282 281 280 279 278 277 277 276 275 274 274 273 272 271 270 269 268 268 267 267 266 265 264 264 263 263 262 262 262 261 261 260 260 259 259 258 258 257 257 257 256 256 256 257 257 257 258
301 300 300 299 298 297 295 294 293 292 291 291 290 289 287 285 284 283 282 280 280 279 278 277 276 275 274 274 273 272 271 270 269 269 268 268 268 268 266 265 263 263 262 262 261 261 260 260 259 258 258 258 257 257 257 257 257 257 256 257 257 257 258
302 301 301 300 299 297 296 295 294 293 292 291 290 289 288 286 285 284 282 281 280 279 278 277 277 276 275 274 273 272 272 271 270 270 269 269 269 269 268 267 265 264 262 261 261 261 261 260 259 259 258 258 258 258 258 258 258 258 258 258 258 258 259
303 302 302 301 300 299 298 297 296 295 294 292 291 290 288 287 285 284 283 281 280 279 279 278 278 277 276 275 274 273 272 271 270 270 270 269 269 269 268 268 267 266 265 263 262 262 262 261 261 260 260 260 260 259 259 259 259 259 259 259 259 259 259
304 303 302 301 300 299 299 298 297 295 294 292 291 290 289 287 286 285 284 283 282 281 280 279 278 278 277 276 275 274 273 272 271 271 270 269 269 268 268 268 268 267 266 265 264 264 263 262 262 261 261 260 260 260 259 259 259 259 259 259 259 259 259
304 304 302 301 301 300 299 298 297 295 294 292 291 290 289 287 286 285 284 283 283 282 281 280 279 278 277 277 276 275 274 273 272 272 271 270 269 269 268 268 267 267 267 266 265 265 264 263 263 262 261 260 260 259 259 259 259 259 259 259 259 259 259
305 305 304 303 302 301 300 299 297 296 295 293 292 291 289 287 286 285 284 283 282 282 281 280 280 279 278 278 277 276 275 274 273 273 272 271 270 270 269 268 268 267 267 266 266 265 265 264 263 262 261 260 259 259 259 258 258 258 258 258 258 259 259
307 306 305 304 304 303 301 300 298 297 296 295 294 292 291 289 287 286 284 284 283 282 281 281 280 280 279 279 278 277 277 276 275 274 274 273 272 271 270 269 269 268 267 267 266 265 265 264 263 262 261 260 259 259 258 258 257 257 258 258 258 258 259
308 308 307 306 305 304 303 301 300 299 298 297 296 295 294 291 290 288 287 286 286 284 283 282 282 281 280 280 279 278 278 277 276 275 275 274 273 272 271 270 269 269 268 267 266 266 265 264 263 262 261 260 259 259 258 258 257 257 257 257 257 258 258
309 309 309 308 307 306 305 304 303 302 301 299 298 298 296 294 292 291 291 290 288 286 285 285 284 283 282 281 280 279 279 278 277 276 275 274 273 273 272 271 270 269 269 268 267 266 265 264 263 262 261 260 259 258 258 257 257 257 257 257 257 257 257
311 311 311 310 309 308 306 306 305 304 303 302 301 300 299 297 296 295 294 293 291 289 288 287 286 285 284 283 282 281 280 279 278 278 277 276 275 273 273 272 271 271 270 268 267 266 265 263 262 261 261 260 259 258 257 257 257 257 256 256 256 257 257
313 312 312 311 311 310 309 308 308 307 306 305 303 302 302 301 300 299 298 296 294 292 291 290 288 287 286 285 284 283 282 281 280 279 278 277 276 275 273 272 272 271 270 269 268 267 266 264 263 262 261 260 259 258 258 257 257 256 256 256 256 257 257
314 314 313 313 312 312 311 311 311 310 309 308 307 306 306 305 303 301 301 299 297 296 294 293 291 290 289 288 286 285 284 283 282 280 279 278 277 276 275 274 273 271 270 269 268 267 266 265 264 262 261 260 259 258 258 257 256 256 255 255 256 256 256
314 315 315 314 314 313 313 313 313 312 312 311 310 310 309 307 305 304 303 302 301 300 298 296 295 293 292 291 289 288 287 285 284 283 281 280 279 277 276 275 274 272 271 270 269 268 267 266 265 263 262 260 259 258 258 257 256 255 255 255 255 256 255
315 315 316 316 316 316 316 316 316 316 315 314 314 313 312 311 310 309 307 306 305 303 302 300 298 297 295 294 292 291 289 288 287 285 284 282 281 279 278 277 275 274 272 271 270 269 268 267 265 264 262 261 259 258 257 257 256 256 255 255 255 255 255